Wind_Speed
8 8 8 7 7 6 6 6 6 7 7 8 8 8 9 9 9 8 9 9 9 10 10 10 11 11 10 10 9 9 9 8 8 7 7 7 7 6 6 6 6 7 7
8 8 7 6 6 6 6 5 5 5 6 6 7 7 8 8 8 8 8 8 9 9 9 10 10 10 10 9 9 8 8 8 7 7 7 7 6 7 7 6 6 7 6
7 7 6 6 5 5 5 4 4 4 5 6 6 6 7 7 8 8 7 7 8 8 8 9 9 9 9 9 8 8 8 7 7 7 7 6 6 6 7 6 6 6 6
6 6 6 5 5 4 4 4 3 4 4 5 6 6 6 6 7 7 7 7 7 7 7 8 8 8 8 8 7 8 7 7 6 6 6 6 6 6 6 6 6 6 6
5 5 5 5 5 4 3 3 3 3 4 4 5 5 5 6 6 6 6 6 7 7 7 7 8 8 7 7 7 7 7 6 6 6 6 6 6 6 6 6 6 6 5
4 4 4 4 4 3 2 2 2 2 3 3 4 4 5 5 6 6 6 6 6 6 6 7 7 7 6 6 6 6 6 6 5 6 6 6 6 6 6 6 6 6 5
4 3 3 3 3 2 1 1 1 1 1 2 3 3 4 4 5 5 5 6 6 6 6 6 6 6 5 5 6 5 5 5 6 6 6 6 6 6 6 5 5 5 5
3 2 2 2 2 1 1 1 1 1 1 1 2 2 3 4 4 5 5 5 6 6 5 5 5 5 5 5 5 5 5 5 5 5 6 6 5 5 5 5 5 4 4
3 2 2 2 1 1 0 0 0 0 1 1 1 2 3 4 4 4 4 5 5 5 5 5 4 4 4 5 5 5 5 5 5 5 5 5 5 5 5 5 5 4 4
4 3 2 2 2 2 1 1 1 1 1 1 1 2 3 3 3 3 4 4 4 4 4 5 4 4 4 4 4 4 4 4 4 4 4 5 5 5 5 5 5 5 4
6 4 3 3 3 2 2 1 1 1 1 1 1 2 2 2 3 3 3 3 3 3 4 4 4 4 4 4 4 3 4 4 4 4 4 4 4 4 5 5 4 4 4
6 5 4 5 4 2 2 1 1 1 2 1 1 1 2 2 2 2 2 2 3 3 3 4 5 4 4 3 4 4 3 3 4 4 4 3 4 4 4 4 4 4 4
7 6 6 5 4 3 2 2 2 2 2 2 1 1 1 1 1 1 1 2 2 2 3 3 4 4 3 3 3 3 3 3 3 4 4 3 3 3 4 4 3 3 2
8 7 7 6 5 4 3 2 2 2 1 1 1 1 1 0 0 1 1 2 2 2 2 3 3 3 3 3 3 3 3 3 3 3 3 3 3 3 3 3 2 2 2
9 9 8 7 6 5 4 2 2 1 1 1 1 1 1 1 1 1 1 1 2 1 1 2 2 2 2 3 3 3 3 2 2 2 2 2 2 3 3 3 2 2 2
9 9 9 7 6 6 4 3 3 3 3 3 2 2 3 2 2 1 1 1 1 1 1 1 2 2 2 2 3 3 3 2 2 1 1 1 2 2 2 2 1 1 1
10 9 9 8 7 6 5 4 4 4 4 4 4 4 4 3 3 2 2 2 2 2 2 1 1 2 1 1 1 2 2 2 2 2 1 1 1 1 1 2 1 1 1
10 10 9 9 8 7 6 5 5 5 5 5 5 5 5 4 4 4 3 3 3 2 2 2 1 2 1 1 1 1 1 2 2 2 1 1 1 1 2 2 2 2 2
10 10 10 9 8 7 7 7 6 6 6 6 5 5 5 4 4 4 4 4 4 4 4 3 2 2 3 2 2 2 2 2 2 2 2 2 2 2 3 3 3 3 4
10 10 10 8 8 8 7 8 7 7 7 7 7 6 5 4 4 4 4 5 5 5 5 5 4 4 4 4 4 4 4 4 4 4 4 3 3 4 4 5 5 5 5
11 12 10 9 9 9 9 9 7 7 6 7 7 7 6 5 6 6 6 6 6 7 6 6 6 6 6 6 5 6 6 5 6 7 6 6 6 6 7 7 7 7 6
13 13 12 11 10 10 9 8 7 6 6 7 6 7 7 7 8 8 8 8 8 9 8 8 7 8 8 8 8 7 7 7 8 9 9 9 9 9 9 9 9 9 8
13 13 13 12 11 10 9 8 8 7 7 7 7 8 8 9 9 8 9 10 10 10 10 10 10 10 9 9 10 10 9 9 9 10 10 10 11 11 11 11 11 11 11
14 13 13 13 12 11 10 9 8 8 8 8 8 9 9 9 9 10 11 11 11 11 11 11 11 11 11 11 11 12 12 11 11 11 12 13 13 13 13 13 14 13 13
14 14 13 13 12 12 11 10 9 10 10 9 9 10 10 10 10 11 11 11 12 12 13 13 13 13 13 13 13 13 13 14 14 14 14 14 14 15 15 15 15 14 14
15 14 13 13 13 12 12 11 11 11 11 10 11 11 10 10 11 12 12 12 13 13 14 13 13 14 14 14 14 14 14 15 16 15 15 15 16 16 16 17 17 16 17
Wind_Direction
83 83 81 82 89 92 95 98 102 107 106 104 105 102 100 98 96 96 94 91 88 87 86 84 83 83 84 82 82 82 81 80 80 78 78 78 79 80 81 86 90 86 83
79 79 78 76 81 87 93 97 100 106 107 105 104 101 99 96 93 93 91 87 86 86 84 84 84 83 82 81 81 78 77 77 76 77 78 75 74 79 82 87 87 86 83
78 74 74 74 75 85 94 98 101 108 108 106 104 102 100 96 93 93 91 87 86 86 86 86 84 83 81 81 81 77 75 76 78 80 77 73 73 78 83 82 82 84 84
73 71 68 68 70 79 89 95 107 110 107 107 106 106 105 101 97 95 92 89 86 85 87 85 83 81 80 79 78 76 73 72 77 79 76 74 76 78 79 80 82 82 82
74 73 67 65 65 67 76 87 104 112 111 110 110 109 105 102 100 97 91 90 88 86 84 83 81 79 76 74 74 71 69 69 72 74 78 79 78 78 75 78 80 81 78
74 75 66 60 60 60 69 80 98 106 111 113 111 106 105 105 104 101 97 94 91 87 83 81 80 77 73 70 69 69 67 68 72 77 82 84 81 78 76 79 77 77 74
70 74 64 53 48 47 45 58 67 78 112 117 111 105 105 108 108 104 100 95 90 86 82 79 78 75 72 66 64 67 68 70 74 81 82 84 81 78 76 80 80 75 72
49 55 56 43 31 32 23 28 44 72 101 111 109 99 105 109 106 105 101 96 91 84 78 75 73 71 67 62 60 65 69 73 72 76 78 78 79 79 75 79 79 75 78
24 31 40 30 8 356 326 320 11 121 107 100 93 93 105 106 104 102 99 94 91 84 76 69 66 69 65 61 62 66 69 75 74 75 76 77 77 79 75 78 79 77 80
16 15 21 354 340 333 298 258 257 237 191 115 97 105 107 108 105 95 91 90 88 80 71 64 62 66 65 65 66 68 67 69 74 79 77 77 78 77 77 83 81 83 81
17 14 8 353 342 326 291 255 252 237 221 182 134 122 116 118 112 92 82 79 82 79 70 65 63 67 68 69 68 71 72 78 80 84 78 76 78 78 78 81 86 90 82
9 7 0 359 356 334 287 240 234 236 228 221 197 142 125 131 118 89 71 68 69 69 71 70 72 70 70 64 61 71 73 75 79 83 79 78 77 78 80 82 88 90 84
5 2 358 351 349 338 314 243 228 225 233 235 217 175 104 126 122 100 78 60 56 60 71 75 82 71 66 58 57 63 69 71 76 84 85 82 77 79 81 85 82 77 84
3 359 357 346 339 334 316 275 247 224 250 244 241 270 352 16 97 104 79 47 41 50 70 78 76 67 64 68 67 67 67 72 78 87 86 83 76 73 78 80 72 70 74
356 355 349 343 334 332 325 306 292 287 304 296 289 289 303 334 311 350 6 352 13 26 39 51 51 52 59 65 65 64 65 69 75 89 83 81 83 74 68 65 70 59 54
351 346 341 342 336 330 317 304 293 290 293 293 303 304 306 309 313 313 323 336 356 7 349 15 25 36 44 56 59 55 54 54 42 33 42 70 78 65 51 45 53 39 16
355 352 342 339 338 329 317 305 295 292 295 300 306 310 306 298 300 305 308 310 328 332 334 333 358 14 14 28 30 31 39 33 15 3 2 5 13 2 358 349 348 345 327
353 351 346 341 334 328 322 315 301 288 286 297 301 306 306 292 290 295 286 292 306 305 308 312 316 323 321 314 333 355 8 6 3 3 338 320 312 319 321 323 328 329 314
347 345 342 342 334 329 323 318 310 298 286 286 290 296 301 291 291 290 280 291 304 292 286 289 286 298 297 281 279 283 305 315 322 336 333 312 304 308 310 305 308 314 315
338 335 336 336 335 330 323 315 310 304 289 280 277 281 287 287 288 291 289 289 297 296 289 287 279 279 285 286 274 273 285 293 295 302 309 307 303 299 298 297 296 299 304
331 328 327 327 327 325 322 312 304 303 294 279 279 278 283 281 280 283 291 292 294 294 284 281 282 284 287 285 280 275 277 285 285 284 289 291 293 292 292 293 291 289 294
329 326 324 320 315 313 317 317 309 302 293 285 282 277 281 280 278 278 280 285 288 291 287 278 278 281 280 280 280 280 281 283 280 281 282 285 285 286 289 289 285 286 293
325 324 321 316 310 307 307 310 308 297 290 287 281 279 278 277 277 276 279 283 285 285 285 282 277 278 279 280 280 280 283 286 284 284 281 279 282 286 288 289 286 282 285
323 320 317 311 307 302 300 298 304 298 285 281 277 275 274 275 274 274 277 280 282 281 280 280 278 277 277 279 281 284 285 288 289 287 284 281 280 284 287 288 287 286 285
318 317 316 313 309 303 299 297 298 297 287 280 280 280 273 269 271 275 275 277 278 280 280 279 279 280 281 280 280 283 287 289 287 287 286 283 282 282 284 288 288 284 284
314 314 313 312 309 308 303 298 295 295 293 286 283 282 279 277 275 275 275 278 280 283 283 279 279 282 283 281 280 281 283 285 285 286 286 284 283 283 284 286 286 285 283
Height
5895 5894 5894 5895 5895 5895 5895 5895 5894 5894 5894 5894 5893 5893 5893 5893 5893 5893 5893 5893 5893 5892 5892 5892 5893 5893 5893 5893 5893 5893 5893 5894 5894 5894 5894 5894 5894 5895 5895 5895 5896 5896 5896
5896 5896 5896 5896 5896 5896 5896 5896 5896 5896 5895 5895 5895 5895 5895 5894 5894 5894 5894 5894 5894 5894 5894 5894 5894 5894 5894 5894 5895 5895 5895 5895 5895 5895 5895 5896 5896 5896 5896 5897 5897 5897 5898
5898 5898 5898 5898 5898 5898 5898 5898 5898 5898 5897 5897 5897 5896 5896 5896 5896 5896 5896 5896 5896 5896 5896 5896 5896 5896 5896 5896 5896 5896 5896 5896 5896 5896 5897 5897 5897 5897 5898 5898 5898 5899 5899
5899 5899 5899 5899 5899 5899 5899 5899 5899 5899 5899 5898 5898 5898 5898 5898 5897 5897 5897 5897 5897 5898 5898 5898 5898 5897 5897 5898 5898 5898 5898 5898 5897 5898 5898 5898 5898 5899 5899 5899 5899 5900 5900
5901 5901 5901 5901 5901 5901 5901 5901 5901 5900 5900 5900 5900 5899 5899 5899 5899 5899 5899 5899 5899 5899 5899 5899 5899 5899 5899 5899 5899 5899 5899 5899 5899 5899 5899 5899 5900 5900 5900 5901 5901 5901 5901
5902 5902 5902 5902 5902 5902 5902 5902 5902 5902 5901 5901 5901 5901 5900 5900 5900 5900 5900 5900 5900 5900 5900 5900 5900 5900 5900 5900 5900 5900 5900 5900 5900 5900 5900 5900 5901 5901 5901 5902 5902 5902 5902
5903 5903 5903 5903 5903 5903 5903 5903 5903 5903 5903 5902 5902 5902 5902 5902 5902 5902 5902 5902 5902 5902 5902 5902 5902 5901 5901 5901 5901 5901 5901 5901 5901 5902 5902 5902 5902 5902 5902 5903 5903 5903 5903
5904 5904 5904 5904 5904 5904 5904 5904 5904 5904 5904 5904 5903 5903 5903 5903 5903 5903 5903 5903 5903 5903 5903 5903 5903 5903 5902 5902 5902 5902 5902 5902 5903 5903 5903 5903 5903 5903 5904 5904 5904 5904 5905
5905 5904 5904 5904 5904 5904 5904 5905 5905 5905 5905 5905 5904 5904 5904 5904 5904 5904 5904 5904 5904 5904 5904 5904 5904 5904 5903 5903 5903 5903 5903 5903 5904 5904 5904 5904 5904 5904 5905 5905 5905 5905 5906
5905 5905 5905 5905 5905 5905 5905 5905 5905 5905 5905 5905 5905 5905 5905 5905 5905 5905 5905 5905 5905 5905 5905 5905 5905 5905 5904 5904 5904 5904 5904 5905 5905 5905 5905 5905 5905 5905 5906 5906 5906 5906 5907
5906 5906 5906 5905 5905 5905 5905 5905 5906 5906 5906 5906 5906 5906 5906 5906 5906 5906 5906 5906 5906 5906 5906 5906 5906 5906 5905 5905 5905 5905 5905 5906 5906 5906 5906 5906 5906 5907 5907 5907 5907 5907 5907
5907 5907 5906 5906 5906 5906 5906 5906 5906 5906 5906 5907 5907 5907 5907 5907 5907 5907 5907 5907 5907 5907 5907 5907 5907 5907 5907 5906 5906 5906 5906 5906 5907 5907 5907 5907 5907 5907 5908 5908 5908 5908 5908
5908 5908 5907 5907 5906 5906 5906 5906 5906 5906 5907 5907 5908 5908 5908 5908 5908 5908 5908 5908 5908 5908 5908 5908 5908 5908 5908 5907 5907 5907 5907 5907 5907 5907 5907 5908 5908 5908 5908 5908 5909 5909 5909
5909 5908 5908 5907 5907 5907 5907 5907 5906 5906 5907 5908 5908 5909 5909 5909 5909 5909 5909 5909 5909 5909 5909 5909 5909 5909 5909 5908 5908 5908 5908 5908 5908 5908 5908 5909 5909 5909 5909 5909 5909 5909 5909
5910 5909 5908 5908 5907 5907 5907 5907 5907 5908 5908 5908 5909 5909 5909 5909 5909 5909 5910 5910 5910 5910 5910 5910 5910 5910 5910 5909 5909 5909 5909 5909 5909 5909 5909 5909 5909 5910 5910 5910 5909 5909 5910
5910 5909 5908 5908 5907 5907 5907 5907 5908 5908 5908 5909 5909 5909 5909 5909 5909 5910 5910 5910 5910 5910 5910 5910 5910 5910 5910 5910 5910 5910 5910 5910 5909 5909 5909 5910 5910 5910 5910 5910 5910 5910 5910
5910 5909 5908 5907 5907 5907 5907 5907 5907 5908 5908 5909 5909 5909 5909 5909 5909 5910 5910 5910 5910 5911 5911 5911 5911 5911 5910 5910 5910 5910 5910 5910 5910 5910 5910 5910 5910 5910 5910 5910 5910 5910 5910
5910 5909 5908 5907 5907 5907 5907 5907 5907 5908 5908 5908 5909 5909 5909 5909 5909 5910 5910 5910 5910 5911 5911 5911 5911 5911 5911 5911 5911 5911 5911 5911 5910 5910 5910 5910 5910 5910 5910 5910 5910 5909 5909
5910 5909 5908 5907 5907 5907 5907 5907 5907 5907 5907 5908 5908 5909 5909 5909 5909 5909 5910 5910 5910 5910 5910 5911 5911 5911 5910 5910 5910 5910 5911 5911 5910 5910 5910 5910 5910 5910 5910 5909 5909 5909 5909
5910 5909 5908 5907 5907 5907 5907 5907 5906 5906 5906 5907 5908 5908 5908 5908 5909 5909 5909 5910 5910 5910 5910 5910 5910 5910 5910 5910 5910 5910 5910 5910 5910 5909 5909 5909 5909 5909 5909 5909 5908 5908 5908
5910 5909 5908 5907 5907 5906 5906 5906 5905 5905 5905 5905 5907 5907 5907 5908 5908 5908 5909 5909 5909 5909 5909 5909 5909 5909 5909 5909 5908 5908 5909 5909 5909 5908 5908 5908 5908 5908 5908 5907 5907 5907 5906
5909 5908 5907 5907 5906 5906 5905 5904 5904 5904 5903 5903 5905 5906 5906 5906 5907 5907 5908 5908 5908 5908 5907 5907 5908 5907 5907 5907 5907 5907 5907 5908 5907 5907 5907 5906 5906 5906 5906 5905 5905 5905 5904
5908 5907 5906 5905 5905 5904 5904 5903 5903 5903 5903 5903 5904 5905 5905 5905 5905 5906 5906 5906 5906 5906 5906 5906 5906 5906 5906 5906 5906 5906 5905 5905 5905 5905 5904 5904 5904 5903 5902 5902 5902 5901 5901
5907 5906 5905 5904 5903 5903 5902 5902 5902 5902 5902 5902 5902 5903 5903 5903 5904 5904 5904 5904 5904 5904 5904 5904 5904 5904 5904 5904 5903 5903 5903 5903 5902 5902 5902 5901 5900 5900 5900 5899 5899 5899 5898
5905 5904 5903 5902 5901 5901 5901 5900 5900 5900 5900 5900 5901 5901 5901 5901 5901 5901 5901 5901 5901 5901 5901 5901 5901 5901 5901 5901 5901 5900 5900 5900 5899 5899 5899 5899 5898 5898 5897 5897 5896 5895 5895
5904 5902 5901 5900 5900 5899 5899 5898 5898 5898 5898 5898 5898 5898 5898 5898 5899 5899 5898 5898 5898 5898 5898 5898 5898 5898 5898 5897 5897 5897 5897 5897 5896 5896 5895 5895 5895 5894 5893 5893 5892 5891 5890